sat.trackr.live / text

‹ back to catalog

STARLINK-35760

NORAD 66274 · 2025-247K

PAYLOAD ACTIVE UNKNOWN

§ Identity

Operator
Country
US
Launch date
2025-10-31
Launch site
AFWTR
Launch vehicle
Mass (kg)
RCS (m²)

Purposes: comms

External: N2YO · Heavens-Above · Gunter

§ Orbital elements

Epoch: 2026-09-20T11:48:25.276608Z

Period
93.85 min
Inclination
53.1598°
Eccentricity
0.0000951
Mean motion
15.34412470 rev/d
Perigee alt
462.0 km
Apogee alt
463.3 km
Semi-major
6,840.8 km
B*
6.5303e-4
RAAN
3.4251°
Arg perigee
66.0849°
Mean anomaly
294.0254°
Rev number
5,090

§ Raw data

STARLINK-357601 66274U 25247K   26263.49195922  .00021760  00000+0  65303-3 0  99902 66274  53.1598   3.4251 0000951  66.0849 294.0254 15.34412470 50902

JSON: /api/v1/satellites/66274 · /tle

For live sub-satellite position, see the globe view (requires WebGL).

§ Visibility from observer

Set your observer location to see the next 7 days of passes ≥ 10°. The values pass through the URL so the page stays shareable.

No JS? Fill the form by hand. The geolocation button needs JavaScript.